TimeCDT,TemperatureF,Dew PointF,Humidity,Sea Level PressureIn,VisibilityMPH,Wind Direction,Wind SpeedMPH,Gust SpeedMPH,PrecipitationIn,Events,Conditions,WindDirDegrees,DateUTC
12:15 AM,53.6,48.2,82,29.95,10.0,East,9.2,-,N/A,,Overcast,90,2012-05-05 05:15:00
12:34 AM,53.6,48.2,82,29.95,10.0,ENE,9.2,-,N/A,,Overcast,70,2012-05-05 05:34:00
12:54 AM,53.6,48.2,82,29.95,10.0,ENE,8.1,-,N/A,,Overcast,70,2012-05-05 05:54:00
1:14 AM,53.6,48.2,82,29.96,10.0,ENE,5.8,-,N/A,,Overcast,70,2012-05-05 06:14:00
1:34 AM,53.6,48.2,82,29.96,10.0,East,10.4,-,N/A,,Overcast,80,2012-05-05 06:34:00
1:54 AM,51.8,48.2,88,29.95,10.0,East,11.5,-,N/A,,Overcast,80,2012-05-05 06:54:00
2:14 AM,51.8,48.2,88,29.94,10.0,East,10.4,-,N/A,,Overcast,90,2012-05-05 07:14:00
2:34 AM,51.8,48.2,88,29.95,10.0,East,8.1,-,N/A,,Overcast,80,2012-05-05 07:34:00
2:54 AM,51.8,48.2,88,29.95,10.0,East,8.1,-,N/A,,Overcast,90,2012-05-05 07:54:00
3:15 AM,51.8,48.2,88,29.95,10.0,East,6.9,-,N/A,,Overcast,90,2012-05-05 08:15:00
3:34 AM,51.8,48.2,88,29.93,10.0,East,10.4,-,N/A,,Overcast,90,2012-05-05 08:34:00
4:14 AM,50.0,48.2,94,29.95,10.0,East,6.9,-,N/A,,Overcast,100,2012-05-05 09:14:00
4:34 AM,50.0,48.2,94,29.94,10.0,ENE,4.6,-,N/A,,Overcast,70,2012-05-05 09:34:00
4:54 AM,50.0,48.2,94,29.95,10.0,East,3.5,-,N/A,,Overcast,90,2012-05-05 09:54:00
5:14 AM,51.8,48.2,88,29.95,10.0,ENE,3.5,-,N/A,,Overcast,60,2012-05-05 10:14:00
5:35 AM,51.8,48.2,88,29.93,10.0,ENE,4.6,-,N/A,,Overcast,60,2012-05-05 10:35:00
5:54 AM,51.8,48.2,88,29.95,10.0,ENE,4.6,-,N/A,,Overcast,60,2012-05-05 10:54:00
6:15 AM,50.0,48.2,94,29.95,10.0,ENE,4.6,-,N/A,,Overcast,60,2012-05-05 11:15:00
6:34 AM,50.0,48.2,94,29.96,10.0,NE,6.9,-,N/A,,Overcast,50,2012-05-05 11:34:00
6:54 AM,50.0,48.2,94,29.95,4.0,NE,8.1,-,N/A,,Overcast,50,2012-05-05 11:54:00
7:14 AM,50.0,48.2,94,29.96,7.0,ENE,5.8,-,N/A,,Overcast,70,2012-05-05 12:14:00
7:34 AM,51.8,48.2,88,29.95,7.0,ENE,6.9,-,N/A,,Overcast,70,2012-05-05 12:34:00
7:54 AM,51.8,48.2,88,29.97,4.0,ENE,5.8,-,N/A,,Overcast,60,2012-05-05 12:54:00
8:15 AM,51.8,48.2,88,29.97,2.5,ENE,8.1,-,N/A,,Overcast,60,2012-05-05 13:15:00
8:35 AM,51.8,50.0,94,29.95,2.5,ENE,10.4,-,N/A,,Overcast,70,2012-05-05 13:35:00
8:54 AM,51.8,50.0,94,29.96,2.0,NE,8.1,-,N/A,,Overcast,50,2012-05-05 13:54:00
9:15 AM,51.8,50.0,94,29.98,3.0,NE,5.8,-,N/A,,Overcast,50,2012-05-05 14:15:00
9:34 AM,51.8,50.0,94,29.99,3.0,ENE,4.6,-,N/A,Thunderstorm,Overcast,60,2012-05-05 14:34:00
9:55 AM,51.8,50.0,94,29.99,2.5,NE,9.2,-,N/A,,Overcast,40,2012-05-05 14:55:00
10:14 AM,51.8,51.8,100,29.97,2.5,NE,13.8,-,N/A,,Overcast,40,2012-05-05 15:14:00
10:34 AM,51.8,51.8,100,30.00,5.0,ENE,6.9,-,N/A,Rain,Light Rain,60,2012-05-05 15:34:00
10:54 AM,51.8,50.0,94,30.01,7.0,Calm,Calm,-,N/A,Rain,Light Rain,0,2012-05-05 15:54:00
11:14 AM,51.8,51.8,100,30.02,7.0,North,4.6,-,N/A,Rain-Thunderstorm,Light Thunderstorms and Rain,10,2012-05-05 16:14:00
11:35 AM,51.8,51.8,100,30.03,7.0,Calm,Calm,-,0.01,Rain-Thunderstorm,Heavy Thunderstorms and Rain,0,2012-05-05 16:35:00
11:54 AM,51.8,51.8,100,30.08,5.0,WSW,4.6,-,0.05,Rain-Thunderstorm,Heavy Thunderstorms and Rain,250,2012-05-05 16:54:00
12:15 PM,51.8,51.8,100,29.88,3.0,ENE,23.0,-,0.08,Rain-Thunderstorm,Heavy Thunderstorms and Rain,70,2012-05-05 17:15:00
12:34 PM,51.8,51.8,100,29.95,7.0,ENE,6.9,-,0.09,Rain,Light Rain,60,2012-05-05 17:34:00
12:54 PM,53.6,51.8,94,30.00,7.0,North,8.1,-,0.09,Rain,Light Rain,10,2012-05-05 17:54:00
1:15 PM,53.6,51.8,94,29.98,5.0,ENE,8.1,-,0.03,Rain,Rain,70,2012-05-05 18:15:00
1:35 PM,53.6,51.8,94,29.91,5.0,ENE,12.7,-,0.05,Rain,Light Rain,60,2012-05-05 18:35:00
1:55 PM,55.4,53.6,94,29.90,5.0,ENE,17.3,-,0.05,,Scattered Clouds,60,2012-05-05 18:55:00
2:15 PM,55.4,53.6,94,29.89,7.0,ENE,13.8,-,N/A,,Scattered Clouds,70,2012-05-05 19:15:00
2:35 PM,57.2,55.4,94,29.88,7.0,East,18.4,23.0,N/A,,Scattered Clouds,80,2012-05-05 19:35:00
2:54 PM,60.8,55.4,82,29.88,10.0,East,16.1,20.7,N/A,,Scattered Clouds,90,2012-05-05 19:54:00
3:14 PM,62.6,55.4,77,29.89,10.0,East,13.8,-,N/A,,Scattered Clouds,90,2012-05-05 20:14:00
3:35 PM,62.6,55.4,77,29.88,10.0,East,17.3,24.2,N/A,,Scattered Clouds,100,2012-05-05 20:35:00
3:54 PM,64.4,55.4,73,29.88,10.0,East,19.6,-,N/A,Thunderstorm,Scattered Clouds,90,2012-05-05 20:54:00
4:15 PM,60.8,55.4,82,29.90,10.0,East,11.5,-,N/A,,Mostly Cloudy,100,2012-05-05 21:15:00
4:34 PM,62.6,57.2,82,29.89,10.0,ESE,12.7,16.1,N/A,,Overcast,110,2012-05-05 21:34:00
4:55 PM,60.8,55.4,82,29.90,10.0,ESE,10.4,-,N/A,,Overcast,120,2012-05-05 21:55:00
5:14 PM,60.8,55.4,82,29.91,10.0,ESE,10.4,-,N/A,,Overcast,120,2012-05-05 22:14:00
5:35 PM,60.8,55.4,82,29.91,10.0,East,9.2,-,N/A,,Overcast,100,2012-05-05 22:35:00
5:55 PM,60.8,55.4,82,29.90,10.0,East,11.5,-,N/A,,Overcast,100,2012-05-05 22:55:00
6:15 PM,60.8,55.4,82,29.90,10.0,East,10.4,-,N/A,,Overcast,90,2012-05-05 23:15:00
6:34 PM,60.8,55.4,82,29.90,10.0,East,10.4,-,N/A,,Overcast,100,2012-05-05 23:34:00
6:54 PM,60.8,55.4,82,29.89,10.0,East,9.2,-,N/A,,Overcast,100,2012-05-05 23:54:00
7:15 PM,60.8,55.4,82,29.91,10.0,East,8.1,-,N/A,,Overcast,90,2012-05-06 00:15:00
7:34 PM,60.8,55.4,82,29.90,10.0,East,10.4,-,N/A,,Overcast,80,2012-05-06 00:34:00
7:54 PM,59.0,55.4,88,29.88,10.0,East,12.7,-,N/A,,Overcast,80,2012-05-06 00:54:00
8:14 PM,59.0,55.4,88,29.88,10.0,East,10.4,-,N/A,,Overcast,90,2012-05-06 01:14:00
8:34 PM,57.2,55.4,94,29.88,10.0,East,10.4,-,N/A,,Overcast,80,2012-05-06 01:34:00
8:55 PM,57.2,55.4,94,29.88,10.0,East,10.4,-,N/A,Thunderstorm,Overcast,90,2012-05-06 01:55:00
9:14 PM,57.2,55.4,94,29.87,10.0,East,15.0,-,N/A,Rain-Thunderstorm,Light Thunderstorms and Rain,80,2012-05-06 02:14:00
9:34 PM,57.2,55.4,94,29.91,10.0,East,6.9,-,0.07,Rain-Thunderstorm,Light Thunderstorms and Rain,100,2012-05-06 02:34:00
9:54 PM,55.4,53.6,94,29.89,7.0,East,16.1,-,0.09,Rain-Thunderstorm,Rain,80,2012-05-06 02:54:00
10:14 PM,55.4,53.6,94,29.90,7.0,East,15.0,23.0,0.01,Rain-Thunderstorm,Light Thunderstorms and Rain,80,2012-05-06 03:14:00
10:34 PM,55.4,53.6,94,29.88,7.0,East,17.3,-,0.02,Rain-Thunderstorm,Light Thunderstorms and Rain,80,2012-05-06 03:34:00
11:14 PM,55.4,53.6,94,29.85,5.0,NE,15.0,19.6,0.01,Rain-Thunderstorm,Thunderstorms and Rain,50,2012-05-06 04:14:00
11:35 PM,55.4,53.6,94,29.86,10.0,NE,15.0,18.4,0.04,Rain-Thunderstorm,Rain,50,2012-05-06 04:35:00
11:54 PM,55.4,53.6,94,29.81,7.0,East,21.9,-,0.06,Rain-Thunderstorm,Rain,90,2012-05-06 04:54:00